| time (UTC) | temp F | wind direction | speed knots | gust knots | rain 1hr in | rain 24hr in | rain mn in | humidity % | barometer mb |
| 20260507033037 | 61 | 282 | 3.5 | 5.2 | 0.00 | 0.00 | 0.00 | 79 | 1012.1 |
| 20260507031854 | 61 | 278 | 3.5 | 5.2 | 0.00 | 0.00 | 0.00 | 78 | 1012.0 |
| 20260507030631 | 61 | 272 | 2.6 | 4.3 | 0.00 | 0.00 | 0.00 | 77 | 1011.9 |
| 20260507025448 | 61 | 280 | 2.6 | 6.1 | 0.00 | 0.00 | 0.00 | 78 | 1011.9 |
| 20260507024244 | 61 | 301 | 3.5 | 5.2 | 0.00 | 0.00 | 0.00 | 77 | 1011.8 |
| 20260507023032 | 61 | 264 | 3.5 | 5.2 | 0.00 | 0.00 | 0.00 | 76 | 1011.8 |
| 20260507021838 | 61 | 285 | 2.6 | 7.0 | 0.00 | 0.00 | 0.00 | 76 | 1011.5 |
| 20260507020635 | 61 | 280 | 4.3 | 7.0 | 0.00 | 0.00 | 0.00 | 76 | 1011.7 |
| 20260507015442 | 62 | 258 | 4.3 | 6.1 | 0.00 | 0.00 | 0.00 | 76 | 1011.5 |
| 20260507014229 | 62 | 258 | 4.3 | 5.2 | 0.00 | 0.00 | 0.00 | 76 | 1011.3 |
| 20260507013036 | 62 | 270 | 4.3 | 10.4 | 0.00 | 0.00 | 0.00 | 75 | 1011.3 |
| 20260507011823 | 62 | 249 | 4.3 | 10.4 | 0.00 | 0.00 | 0.00 | 74 | 1011.2 |
| 20260507010630 | 62 | 265 | 5.2 | 7.0 | 0.00 | 0.00 | 0.00 | 75 | 1011.0 |
| 20260507005437 | 62 | 271 | 5.2 | 7.8 | 0.00 | 0.00 | 0.00 | 73 | 1010.7 |
| 20260507004235 | 63 | 259 | 3.5 | 5.2 | 0.00 | 0.00 | 0.00 | 72 | 1010.5 |
| 20260507003032 | 63 | 253 | 2.6 | 3.5 | 0.00 | 0.00 | 0.00 | 73 | 1010.4 |
| 20260507001854 | 63 | 293 | 3.5 | 6.1 | 0.00 | 0.00 | 0.00 | 73 | 1010.3 |
| 20260507000645 | 63 | 272 | 3.5 | 5.2 | 0.00 | 0.00 | 0.00 | 74 | 1010.3 |
| 20260506235432 | 63 | 280 | 6.1 | 9.6 | 0.00 | 0.00 | 0.00 | 74 | 1010.3 |
| 20260506234249 | 63 | 278 | 4.3 | 7.0 | 0.00 | 0.00 | 0.00 | 72 | 1010.1 |
| 20260506233026 | 64 | 289 | 3.5 | 6.1 | 0.00 | 0.00 | 0.00 | 70 | 1009.8 |
| 20260506231844 | 64 | 274 | 3.5 | 5.2 | 0.00 | 0.00 | 0.00 | 67 | 1009.7 |
| 20260506230651 | 64 | 266 | 3.5 | 5.2 | 0.00 | 0.00 | 0.00 | 65 | 1009.4 |
| 20260506225438 | 65 | 268 | 2.6 | 5.2 | 0.00 | 0.00 | 0.00 | 64 | 1009.2 |
| 20260506224245 | 65 | 266 | 4.3 | 6.1 | 0.00 | 0.00 | 0.00 | 62 | 1009.1 |
| 20260506223052 | 65 | 260 | 3.5 | 4.3 | 0.00 | 0.00 | 0.00 | 60 | 1009.0 |
| 20260506221819 | 66 | 266 | 2.6 | 4.3 | 0.00 | 0.00 | 0.00 | 58 | 1008.7 |
| 20260506220627 | 66 | 287 | 0.9 | 1.7 | 0.00 | 0.00 | 0.00 | 59 | 1008.4 |
| 20260506215454 | 65 | 208 | 4.3 | 6.1 | 0.00 | 0.00 | 0.00 | 60 | 1008.2 |
| 20260506214341 | 65 | 248 | 3.5 | 8.7 | 0.00 | 0.00 | 0.00 | 61 | 1007.6 |
| 20260506213029 | 65 | 203 | 4.3 | 7.0 | 0.00 | 0.00 | 0.00 | 60 | 1007.3 |
| 20260506211847 | 66 | 190 | 4.3 | 6.1 | 0.00 | 0.00 | 0.00 | 59 | 1007.2 |
| 20260506210634 | 66 | 207 | 1.7 | 3.5 | 0.00 | 0.00 | 0.00 | 59 | 1007.2 |
| 20260506205441 | 66 | 156 | 3.5 | 6.1 | 0.00 | 0.00 | 0.00 | 58 | 1007.1 |
| 20260506204249 | 67 | 208 | 3.5 | 6.1 | 0.00 | 0.00 | 0.00 | 57 | 1007.1 |
| 20260506203037 | 67 | 212 | 2.6 | 4.3 | 0.00 | 0.00 | 0.00 | 57 | 1007.0 |
| 20260506201905 | 67 | 329 | 4.3 | 8.7 | 0.00 | 0.00 | 0.00 | 56 | 1006.8 |
| 20260506200702 | 67 | 214 | 3.5 | 6.1 | 0.00 | 0.00 | 0.00 | 56 | 1006.8 |
| 20260506195440 | 68 | 169 | 2.6 | 4.3 | 0.00 | 0.00 | 0.00 | 56 | 1006.8 |
| 20260506194228 | 68 | 185 | 2.6 | 5.2 | 0.00 | 0.00 | 0.00 | 56 | 1006.4 |
| 20260506193055 | 68 | 116 | 1.7 | 3.5 | 0.00 | 0.00 | 0.00 | 56 | 1006.4 |
| 20260506191853 | 68 | 155 | 2.6 | 4.3 | 0.00 | 0.00 | 0.00 | 56 | 1006.4 |
| 20260506190640 | 69 | 162 | 3.5 | 4.3 | 0.00 | 0.00 | 0.00 | 55 | 1006.4 |
| 20260506185427 | 69 | 188 | 2.6 | 5.2 | 0.00 | 0.00 | 0.00 | 55 | 1006.3 |
| 20260506184235 | 70 | 204 | 2.6 | 4.3 | 0.00 | 0.00 | 0.00 | 54 | 1006.3 |
| 20260506183042 | 70 | 295 | 2.6 | 5.2 | 0.00 | 0.00 | 0.00 | 53 | 1006.1 |
| 20260506181830 | 71 | 94 | 3.5 | 6.1 | 0.00 | 0.00 | 0.00 | 52 | 1005.7 |
| 20260506180627 | 71 | 67 | 3.5 | 5.2 | 0.00 | 0.00 | 0.00 | 51 | 1005.7 |
| 20260506175443 | 72 | 112 | 3.5 | 7.0 | 0.00 | 0.00 | 0.00 | 50 | 1005.6 |
| 20260506174251 | 72 | 198 | 4.3 | 7.8 | 0.00 | 0.00 | 0.00 | 49 | 1005.7 |
| 20260506173038 | 73 | 209 | 3.5 | 5.2 | 0.00 | 0.00 | 0.00 | 49 | 1005.6 |
| 20260506171855 | 74 | 141 | 3.5 | 7.8 | 0.00 | 0.00 | 0.00 | 48 | 1005.6 |
| 20260506170642 | 74 | 120 | 4.3 | 7.0 | 0.00 | 0.00 | 0.00 | 47 | 1005.7 |
| 20260506165427 | 75 | 73 | 3.5 | 6.1 | 0.00 | 0.00 | 0.00 | 46 | 1005.7 |
| 20260506164233 | 75 | 177 | 4.3 | 7.8 | 0.00 | 0.00 | 0.00 | 46 | 1005.8 |
| 20260506163030 | 75 | 208 | 4.3 | 7.0 | 0.00 | 0.00 | 0.00 | 46 | 1005.8 |
| 20260506161855 | 76 | 197 | 5.2 | 7.0 | 0.00 | 0.00 | 0.00 | 44 | 1006.0 |
| 20260506160646 | 76 | 178 | 6.1 | 8.7 | 0.00 | 0.00 | 0.00 | 43 | 1006.2 |
| 20260506155423 | 77 | 140 | 6.1 | 8.7 | 0.00 | 0.00 | 0.00 | 43 | 1006.3 |
| 20260506154251 | 77 | 47 | 4.3 | 6.1 | 0.00 | 0.00 | 0.00 | 44 | 1006.4 |
| 20260506153038 | 77 | 142 | 6.1 | 8.7 | 0.00 | 0.00 | 0.00 | 44 | 1006.7 |
| 20260506151825 | 77 | 79 | 4.3 | 5.2 | 0.00 | 0.00 | 0.00 | 43 | 1006.6 |
| 20260506150652 | 77 | 72 | 3.5 | 7.0 | 0.00 | 0.00 | 0.00 | 42 | 1006.7 |
| 20260506145439 | 77 | 120 | 5.2 | 7.8 | 0.00 | 0.00 | 0.00 | 42 | 1007.0 |
| 20260506144227 | 78 | 80 | 6.1 | 9.6 | 0.00 | 0.00 | 0.00 | 40 | 1007.0 |
| 20260506143034 | 78 | 230 | 5.2 | 7.8 | 0.00 | 0.00 | 0.00 | 40 | 1007.3 |
| 20260506141821 | 78 | 117 | 4.3 | 6.1 | 0.00 | 0.00 | 0.00 | 40 | 1007.3 |
| 20260506140629 | 79 | 38 | 5.2 | 6.1 | 0.00 | 0.00 | 0.00 | 40 | 1007.4 |
| 20260506135436 | 79 | 76 | 4.3 | 6.1 | 0.00 | 0.00 | 0.00 | 40 | 1007.6 |
| 20260506134303 | 79 | 152 | 5.2 | 7.8 | 0.00 | 0.00 | 0.00 | 41 | 1007.8 |
| 20260506133031 | 78 | 60 | 4.3 | 6.1 | 0.00 | 0.00 | 0.00 | 42 | 1008.0 |
| 20260506131858 | 78 | 71 | 4.3 | 7.8 | 0.00 | 0.00 | 0.00 | 42 | 1008.0 |
| 20260506130625 | 78 | 186 | 3.5 | 5.2 | 0.00 | 0.00 | 0.00 | 42 | 1008.3 |
| 20260506125433 | 78 | 86 | 4.3 | 7.8 | 0.00 | 0.00 | 0.00 | 42 | 1008.5 |
| 20260506124250 | 77 | 91 | 4.3 | 6.1 | 0.00 | 0.00 | 0.00 | 43 | 1008.6 |
| 20260506123027 | 77 | 136 | 4.3 | 7.0 | 0.00 | 0.00 | 0.00 | 44 | 1008.8 |
| 20260506121835 | 78 | 78 | 4.3 | 6.1 | 0.00 | 0.00 | 0.00 | 44 | 1008.9 |
| 20260506120642 | 78 | 101 | 6.1 | 11.3 | 0.00 | 0.00 | 0.00 | 42 | 1009.1 |
| 20260506115429 | 79 | 112 | 4.3 | 7.8 | 0.00 | 0.00 | 0.00 | 41 | 1009.2 |
| 20260506114237 | 78 | 246 | 3.5 | 5.2 | 0.00 | 0.00 | 0.00 | 41 | 1009.2 |
| 20260506113104 | 78 | 106 | 3.5 | 7.0 | 0.00 | 0.00 | 0.00 | 41 | 1009.1 |
| 20260506111842 | 79 | 175 | 3.5 | 5.2 | 0.00 | 0.00 | 0.00 | 39 | 1009.4 |
| 20260506110629 | 80 | 185 | 3.5 | 7.0 | 0.00 | 0.00 | 0.00 | 36 | 1009.5 |
| 20260506105427 | 81 | 114 | 4.3 | 6.1 | 0.00 | 0.00 | 0.00 | 35 | 1009.6 |
| 20260506104304 | 81 | 50 | 2.6 | 3.5 | 0.00 | 0.00 | 0.00 | 36 | 1009.6 |
| 20260506103051 | 80 | 168 | 1.7 | 3.5 | 0.00 | 0.00 | 0.00 | 36 | 1009.7 |
| 20260506101849 | 80 | 188 | 3.5 | 6.1 | 0.00 | 0.00 | 0.00 | 36 | 1010.0 |
| 20260506100626 | 79 | 204 | 2.6 | 5.2 | 0.00 | 0.00 | 0.00 | 36 | 1010.3 |
| 20260506095443 | 79 | 182 | 1.7 | 2.6 | 0.00 | 0.00 | 0.00 | 35 | 1010.2 |
| 20260506094231 | 80 | 201 | 3.5 | 5.2 | 0.00 | 0.00 | 0.00 | 35 | 1010.5 |
| 20260506093037 | 80 | 177 | 2.6 | 5.2 | 0.00 | 0.00 | 0.00 | 35 | 1010.4 |
| 20260506091834 | 79 | 65 | 1.7 | 2.6 | 0.00 | 0.00 | 0.00 | 35 | 1010.4 |
| 20260506090641 | 79 | 183 | 4.3 | 7.8 | 0.00 | 0.00 | 0.00 | 35 | 1010.5 |
| 20260506085428 | 79 | 220 | 2.6 | 3.5 | 0.00 | 0.00 | 0.00 | 36 | 1010.5 |
| 20260506084235 | 81 | 261 | 2.6 | 6.1 | 0.00 | 0.00 | 0.00 | 36 | 1010.7 |
| 20260506083051 | 79 | 188 | 2.6 | 5.2 | 0.00 | 0.00 | 0.00 | 38 | 1010.6 |
| 20260506081838 | 79 | 202 | 1.7 | 3.5 | 0.00 | 0.00 | 0.00 | 38 | 1010.9 |
| 20260506080625 | 79 | 222 | 2.6 | 4.3 | 0.00 | 0.00 | 0.00 | 40 | 1010.9 |
| 20260506073031 | 81 | 210 | 2.6 | 5.2 | 0.00 | 0.00 | 0.00 | 41 | 1011.1 |
| 20260506071857 | 80 | 266 | 2.6 | 5.2 | 0.00 | 0.00 | 0.00 | 42 | 1011.1 |
| 20260506070643 | 80 | 213 | 2.6 | 3.5 | 0.00 | 0.00 | 0.00 | 44 | 1011.1 |
| 20260506061833 | 70 | 185 | 2.6 | 3.5 | 0.00 | 0.00 | 0.00 | 60 | 1011.3 |
| 20260506060638 | 65 | 236 | 2.6 | 4.3 | 0.00 | 0.00 | 0.00 | 72 | 1011.4 |
| 20260506050624 | 61 | 0.0 | 0.0 | 0.00 | 0.00 | 0.00 | 80 | 1011.0 | |
| 20260506044243 | 60 | 0.0 | 0.0 | 0.00 | 0.00 | 0.00 | 77 | 1010.8 | |
| 20260506043040 | 60 | 0.0 | 0.0 | 0.00 | 0.00 | 0.00 | 75 | 1010.6 | |
| 20260506041827 | 60 | 0.0 | 0.0 | 0.00 | 0.00 | 0.00 | 74 | 1010.4 | |
| 20260506040624 | 61 | 0.0 | 0.0 | 0.00 | 0.00 | 0.00 | 73 | 1010.3 | |
| 20260506035442 | 61 | 294 | 0.9 | 1.7 | 0.00 | 0.00 | 0.00 | 71 | 1010.3 |
| 20260506034228 | 61 | 315 | 0.0 | 0.0 | 0.00 | 0.00 | 0.00 | 70 | 1010.3 |